Belden, MS

2:04 AM CST on February 08, 2016 (GMT -0600)
Tupelo Regional

Weather History for KTUP - February, 2013

Change the Weather History Date:

Tuesday, February 5, 2013

  Actual Average Record
Temperature  
Mean Temperature 54 °F 44 °F  
Max Temperature 67 °F 54 °F 76 °F (2008)
Min Temperature 41 °F 33 °F 7 °F (1996)
Degree Days  
Heating Degree Days 11 21  
Month to date heating degree days 110 109  
Since 1 July heating degree days 1787 2005  
Cooling Degree Days 0 0  
Month to date cooling degree days 0 0  
Year to date cooling degree days 6 1  
Growing Degree Days 4 (Base 50)    
Moisture  
Dew Point 44 °F    
Average Humidity 71    
Maximum Humidity 93    
Minimum Humidity 48    
Precipitation  
Precipitation T in 0.17 in 3.38 in (2004)
Month to date precipitation 0.08 0.81  
Year to date precipitation 8.79 5.29  
Snow  
Snow 0.00 in 0.00 in 1.00 in (1983)
Month to date snowfall 0.0 0.1  
Since 1 July snowfall T 1.3  
Snow Depth 0.00 in    
Sea Level Pressure  
Sea Level Pressure 30.00 in    
Wind  
Wind Speed 1 mph (SW)    
Max Wind Speed 9 mph    
Max Gust Speed 12 mph    
Visibility 10 miles    
Events      
T = Trace of Precipitation, MM = Missing Value Source: NWS Daily Summary

Daily Weather History Graph

Daily Weather History Graph

Search for Another Location

Airport or City:

Trip Planner

Search our weather history database for the weather conditions in past years. The results will help you decide how hot, cold, wet, or windy it might be!

Date:

Astronomy

Feb. 05, 2013 Rise Set
Actual Time 6:49 AM CST 5:29 PM CST
Civil Twilight 6:23 AM CST 5:55 PM CST
Nautical Twilight 5:53 AM CST 6:25 PM CST
Astronomical Twilight 5:23 AM CST 6:54 PM CST
Moon 2:26 AM CST (2/5) 12:51 PM CST (2/5)
Length of Visible Light 11h 32m
Length of Day
10h 40m
Waning Crescent, 26% of the Moon is Illuminated
Feb 5
Waning Crescent
Feb 10
New
Feb 17
First Quarter
Feb 25
Full
Mar 4
Last Quarter

Hourly Weather History & Observations

Time (CST) Temp. Windchill Dew Point Humidity Pressure Visibility Wind Dir Wind Speed Gust Speed Precip Events Conditions
12:53 AM 48.0 °F - 37.9 °F 68% 29.96 in 10.0 mi North 3.5 mph - N/A   Overcast
1:53 AM 48.0 °F - 39.0 °F 71% 29.96 in 10.0 mi Calm Calm - N/A   Overcast
2:25 AM 46.4 °F - 42.8 °F 87% 29.95 in 10.0 mi Calm Calm - 0.00 in   Overcast
2:37 AM 46.4 °F - 42.8 °F 87% 29.95 in 10.0 mi Calm Calm - 0.00 in   Overcast
2:53 AM 46.9 °F - 43.0 °F 86% 29.95 in 10.0 mi Calm Calm - 0.00 in   Overcast
3:40 AM 46.4 °F 45.2 °F 44.6 °F 93% 29.95 in 10.0 mi South 3.5 mph - 0.00 in   Overcast
3:53 AM 46.9 °F - 44.1 °F 90% 29.94 in 10.0 mi Calm Calm - 0.00 in   Overcast
4:06 AM 46.4 °F - 42.8 °F 87% 29.96 in 10.0 mi Calm Calm - N/A   Overcast
4:22 AM 46.4 °F - 42.8 °F 87% 29.96 in 10.0 mi Calm Calm - N/A   Overcast
4:53 AM 46.9 °F - 44.1 °F 90% 29.96 in 10.0 mi SSW 3.5 mph - N/A   Overcast
5:53 AM 48.0 °F - 43.0 °F 83% 29.97 in 10.0 mi Calm Calm - N/A   Overcast
6:53 AM 48.0 °F - 44.1 °F 86% 29.99 in 10.0 mi Calm Calm - N/A   Overcast
7:53 AM 48.9 °F - 42.1 °F 77% 30.01 in 10.0 mi Calm Calm - N/A   Overcast
8:37 AM 50.0 °F - 42.8 °F 76% 30.02 in 10.0 mi Calm Calm - N/A   Overcast
8:53 AM 51.1 °F - 43.0 °F 74% 30.02 in 10.0 mi Calm Calm - N/A   Overcast
9:53 AM 52.0 °F - 43.0 °F 71% 30.04 in 10.0 mi Calm Calm - N/A   Overcast
10:53 AM 54.0 °F - 44.1 °F 69% 30.05 in 10.0 mi SW 3.5 mph - N/A   Overcast
11:26 AM 57.2 °F - 46.4 °F 67% 30.04 in 10.0 mi WSW 4.6 mph - N/A   Mostly Cloudy
11:35 AM 57.2 °F - 46.4 °F 67% 30.04 in 10.0 mi West 3.5 mph - N/A   Scattered Clouds
11:53 AM 57.0 °F - 46.0 °F 67% 30.03 in 10.0 mi SSE 3.5 mph - N/A   Clear
12:53 PM 60.1 °F - 46.9 °F 62% 30.01 in 10.0 mi Calm Calm - N/A   Clear
1:53 PM 63.0 °F - 46.9 °F 56% 29.98 in 10.0 mi Calm Calm - N/A   Clear
2:53 PM 66.0 °F - 48.0 °F 52% 29.97 in 10.0 mi Calm Calm - N/A   Clear
3:53 PM 66.0 °F - 46.9 °F 50% 29.97 in 10.0 mi West 5.8 mph - N/A   Mostly Cloudy
4:53 PM 64.0 °F - 46.9 °F 54% 29.98 in 10.0 mi WSW 3.5 mph - N/A   Clear
5:53 PM 57.9 °F - 46.9 °F 67% 29.99 in 10.0 mi Calm Calm - N/A   Clear
6:53 PM 53.1 °F - 46.9 °F 80% 30.01 in 10.0 mi Calm Calm - N/A   Clear
7:53 PM 50.0 °F - 46.0 °F 86% 30.03 in 10.0 mi Calm Calm - N/A   Clear
8:53 PM 48.0 °F - 45.0 °F 89% 30.05 in 10.0 mi Calm Calm - N/A   Clear
9:53 PM 46.0 °F - 44.1 °F 93% 30.06 in 10.0 mi Calm Calm - N/A   Clear
10:53 PM 44.1 °F - 41.0 °F 89% 30.06 in 9.0 mi Calm Calm - N/A   Clear
11:53 PM 41.0 °F - 39.9 °F 96% 30.07 in 8.0 mi Calm Calm - N/A   Clear